OpenBCM V1.07b12 (Linux)

Packet Radio Mailbox

SR1BSZ

[Szczecin_PL JO73GK]

 Login: GUEST





  
I0OJJ  > KEPS     18.12.24 08:12z 355 Lines 16897 Bytes #10 (0) @ AMSAT
BID : ORB24353.1
Read: GUEST
Subj: 2Line Orbital Elements 24353.AMSAT
Path: SR1BSZ<IW0QNL<IZ3LSV<I0OJJ
Sent: 241218/0815z @:I0OJJ.ITA.EU [Rome] obcm1.08-6-g5b69
From: I0OJJ @ I0OJJ.ITA.EU (Gustavo)
To:   KEPS @ AMSAT
X-Info: This message was generated automatically


QST de W1STR

AMSAT Orbital Elements for Amateur Satellites in TLE Format
From Orbital Analysis Office
New England Sci-Tech STEM Education Center
Natick, MA December 18, 2024
To all radio amateurs


These element sets describe the orbits of various satellites 
in use by the amateur radio community. For details see:
www.amsat.org/keplerian-elements-formats/

A daily update of element sets is available at:
www.amsat.org/tle/daily-bulletin.txt
or without bulletin text:
www.amsat.org/tle/dailytle.txt


AO-07
1 07530U 74089B   24352.61792678 -.00000037  00000-0  60180-4 0  9995
2 07530 101.9900 349.0603 0012393  94.1165  23.8753 12.53683913292266
UO-11
1 14781U 84021B   24352.33736920  .00003131  00000-0  34459-3 0  9991
2 14781  97.7313 316.5492 0007530 180.2873 179.8341 14.88266524175717
AO-27
1 22825U 93061C   24352.15386285  .00000313  00000-0  13710-3 0  9994
2 22825  98.7645  46.6211 0007360 262.8096  97.2250 14.30682482628772
FO-29
1 24278U 96046B   24352.48590316  .00000058  00000-0  92304-4 0  9995
2 24278  98.5885 263.1489 0350905  73.5733 290.3668 13.53225846399229
NOAA-15
1 25338U 98030A   24352.69983316  .00000375  00000-0  17226-3 0  9998
2 25338  98.5527  15.8754 0010899 143.6318 216.5606 14.26828065383600
GO-32
1 25397U 98043D   24352.54014914  .00000239  00000-0  12385-3 0  9990
2 25397  98.9485 322.2546 0001569  32.5006 327.6269 14.24213141373519
ISS
1 25544U 98067A   24352.72120442  .00016275  00000-0  28537-3 0  9997
2 25544  51.6382 126.0578 0007520 352.4960 141.1840 15.50685495487016
NO-44
1 26931U 01043C   24352.69384179  .00000395  00000-0  17932-3 0  9994
2 26931  67.0495 217.3650 0006663 260.4810  99.5538 14.31543115212372
SO-50
1 27607U 02058C   24352.55676750  .00003015  00000-0  40688-3 0  9992
2 27607  64.5552  17.2845 0035388  21.5452 338.7132 14.80522393183459
CO-55
1 27844U 03031E   24352.47819483  .00000786  00000-0  36330-3 0  9991
2 27844  98.6777 357.0186 0009280 339.1990  20.8810 14.23705652113867
CO-57
1 27848U 03031J   24352.55845068  .00000672  00000-0  31711-3 0  9994
2 27848  98.6804 357.2294 0009467 356.1150   3.9953 14.23083218113618
RS-22
1 27939U 03042A   24352.72455229  .00002955  00000-0  48531-3 0  9996
2 27939  98.3078 152.2688 0011333 195.5151 285.7352 14.71391902135252
NOAA-18
1 28654U 05018A   24352.70627358  .00000427  00000-0  25048-3 0  9998
2 28654  98.8605  68.0365 0013268 261.8972  98.0695 14.13455242  9182
CO-58
1 28895U 05043F   24351.83669386  .00004070  00000-0  69123-3 0  9993
2 28895  98.2243 128.4513 0015739 138.1446 222.0965 14.69646832 21264
CO-65
1 32785U 08021C   24352.49388083  .00009313  00000-0  73334-3 0  9994
2 32785  97.7711 317.0359 0013042  92.8338 267.4378 15.00959449903005
AAUSAT2
1 32788U 08021F   24352.24289082  .00075633  00000-0  20508-2 0  9991
2 32788  97.6055 335.4038 0001259 113.9759 246.1617 15.37347515906238
CO-66
1 32791U 08021J   24352.43684654  .00018581  00000-0  11013-2 0  9990
2 32791  97.7115 323.7187 0007134  57.4623 302.7295 15.11412261904204
RS-30
1 32953U 08025A   24352.72750999  .00000028  00000-0  12931-3 0  9990
2 32953  82.5033 335.3232 0020614  65.7845 294.5386 12.43155315751936
PRISM
1 33493U 09002B   24352.67922306  .00090802  00000-0  21815-2 0  9992
2 33493  98.1756  58.4101 0007641 329.5715  30.5085 15.40966804867071
NOAA-19
1 33591U 09005A   24352.68476615  .00000381  00000-0  22770-3 0  9997
2 33591  99.0240  50.2228 0014539 132.7634 227.4763 14.13231862817541
SRMSAT
1 37841U 11058D   24352.61138001  .00000616  00000-0  19156-3 0  9992
2 37841  19.9707 127.2127 0011740 312.1180 141.5074 14.11312218680504
RS-40
1 38735U 12041C   24352.67053236  .00000061  00000-0  37131-3 0  9997
2 38735  82.4768  55.4722 0017831 176.0456 184.0767 12.42622209562058
ZACUBE-1
1 39417U 13066B   24352.58657129  .00009308  00000-0  87366-3 0  9992
2 39417  97.7592 305.1681 0044976 273.1679  86.4395 14.93416242598917
Delfi-N3xt
1 39428U 13066N   24352.33426658  .00012012  00000-0  13496-2 0  9996
2 39428  97.8380 266.4631 0090122 211.8952 147.6787 14.83931563593193
GOMX-1
1 39430U 13066Q   24352.69638085  .00004350  00000-0  69601-3 0  9993
2 39430  97.7033 215.9242 0136583  28.8291 332.0373 14.66179093589910
LO-74
1 39440U 13066AA  24352.58762779  .00010347  00000-0  11140-2 0  9997
2 39440  97.8332 292.9006 0067037  34.4851 326.0687 14.86996439595550
AO-73
1 39444U 13066AE  24352.38995565  .00011935  00000-0  10066-2 0  9990
2 39444  97.7448 308.7274 0040998 250.0958 109.5845 14.97651800597470
DTUSAT-2
1 40030U 14033W   24352.83364549  .00014508  00000-0  10593-2 0  9994
2 40030  98.0361 311.0671 0008428 294.3401  65.6943 15.03758855570754
EO-80
1 40032U 14033Y   24352.46389346  .00011788  00000-0  86096-3 0  9996
2 40032  98.0232 310.5721 0007337 219.8448 140.2239 15.03805922570165
XW-2C
1 40906U 15049H   24352.63318437  .00161936  00000-0  12276-2 0  9995
2 40906  97.4537  17.0992 0004322  22.7426 337.4028 15.71865450512959
LILACSAT-2
1 40908U 15049K   24352.73360476  .00018396  00000-0  58147-3 0  9997
2 40908  97.5180   3.5270 0012785  65.8571 294.4006 15.32778155511540
IO-86
1 40931U 15052B   24337.09180034  .00002217  00000-0  20975-3 0  9992
2 40931   5.9986 232.5457 0013173 302.5393  57.3463 14.78392648496340
ChubuSat-2
1 41338U 16012B   24352.50061293  .00010237  00000-0  56906-3 0  9993
2 41338  31.0011 287.6048 0011079 280.7539  79.1853 15.12366222485330
ChubuSat-3
1 41339U 16012C   24352.53911620  .00009309  00000-0  53238-3 0  9998
2 41339  31.0076 287.3521 0011115 283.1624  76.7774 15.11323061485303
Horyu-4
1 41340U 16012D   24352.01734221  .00025220  00000-0  94707-3 0  9999
2 41340  30.9991 216.3949 0008678  37.0090 323.1150 15.25976189486003
Lapan A3
1 41603U 16040E   24352.73184274  .00005730  00000-0  21353-3 0  9999
2 41603  97.1383 358.4023 0011936 159.9633 200.2078 15.27753716471227
Pratham
1 41783U 16059A   24352.47935565  .00001583  00000-0  29650-3 0  9996
2 41783  97.8287   3.2422 0032546 156.3482 203.9227 14.65781431439380
CAS-2T
1 41847U 16066G   24352.23165689  .00002030  00000-0  30073-3 0  9990
2 41847  98.4426  62.1442 0349171 345.7210  13.4301 14.42553278425874
CAS-4B
1 42759U 17034B   24352.73845641  .00045425  00000-0  10480-2 0  9991
2 42759  43.0134 260.1194 0014377 168.6603 191.4581 15.41730386415590
CAS-4A
1 42761U 17034D   24352.78295088  .00047341  00000-0  10802-2 0  9990
2 42761  43.0168 257.9864 0015471 176.3364 183.7609 15.42028284415610
D-SAT
1 42794U 17036AF  24352.47896419  .00011959  00000-0  73956-3 0  9995
2 42794  97.4974 328.3384 0098883 243.9364 115.1659 15.05925246408285
TechnoSat
1 42829U 17042E   24352.75273524  .00007092  00000-0  58141-3 0  9990
2 42829  97.3848 163.9735 0012930 169.0459 191.1049 14.99476957404654
AO-91
1 43017U 17073E   24352.56769657  .00015763  00000-0  86994-3 0  9991
2 43017  97.5469 221.9947 0192462  37.7137 323.7399 14.99515687383086
S-Net D
1 43186U 18014G   24352.58938578  .00009791  00000-0  62912-3 0  9994
2 43186  97.5769 251.4925 0011755  97.8119 262.4445 15.08578650376119
S-Net B
1 43187U 18014H   24352.46021547  .00009435  00000-0  60659-3 0  9992
2 43187  97.5777 251.3273 0012482  94.4969 265.7686 15.08561148376092
S-Net A
1 43188U 18014J   24352.52395667  .00009781  00000-0  62837-3 0  9991
2 43188  97.5782 251.5195 0012424  94.9327 265.3320 15.08580461376105
S-Net C
1 43189U 18014K   24352.46227059  .00009493  00000-0  61006-3 0  9991
2 43189  97.5799 251.4421 0014023  89.1109 271.1726 15.08558427374645
Ten-Koh
1 43677U 18084G   24352.45948015  .00006148  00000-0  51591-3 0  9993
2 43677  98.0790 151.9770 0014802 127.5920 232.6648 14.98657554334143
PO-101
1 43678U 18084H   24352.74041867  .00003992  00000-0  35319-3 0  9999
2 43678  98.0865 156.5567 0009801 137.5191 222.6789 14.96869159334369
QO-100
1 43700U 18090A   24352.53056779  .00000149  00000-0  00000-0 0  9994
2 43700   0.0170  14.6538 0002609 290.5125 358.2635  1.00272433 22190
MinXSS-2
1 43758U 18099A   24352.73185871  .00024305  00000-0  12150-2 0  9995
2 43758  97.5295  53.0056 0014733  48.5915 311.6582 15.17345293330535
AO-95
1 43770U 18099N   24352.71404481  .00016322  00000-0  95451-3 0  9994
2 43770  97.5199  47.1001 0013313  94.5180 265.7571 15.11866972330234
RANGE-B
1 43772U 18099Q   24351.91426545  .00026212  00000-0  12242-2 0  9997
2 43772  97.5001  50.8622 0004191   6.3567 353.7721 15.19784658330370
RANGE-A
1 43773U 18099R   24352.65559476  .00008297  00000-0  57001-3 0  9996
2 43773  97.4764  40.1699 0013753  71.3668 288.9052 15.06126718330010
MOVE-II
1 43780U 18099Y   24352.69894383  .00062665  00000-0  19108-2 0  9991
2 43780  97.4947  55.7484 0005013  59.0553 301.1182 15.33709494330864
SNUSat 2
1 43782U 18099AA  24352.41495476  .00012385  00000-0  76182-3 0  9993
2 43782  97.4890  44.8620 0014156  40.7603 319.4682 15.10085817330177
SnugLite
1 43784U 18099AC  24352.71255485  .00016236  00000-0  94431-3 0  9998
2 43784  97.4693  44.4735 0004792  52.7843 307.3825 15.12130821330316
ITASat 1
1 43786U 18099AE  24352.72554329  .00011389  00000-0  72116-3 0  9990
2 43786  97.4848  45.1117 0017031  86.0954 274.2221 15.09008540330203
EAGLET 1
1 43790U 18099AJ  24352.41505278  .00007787  00000-0  53212-3 0  9993
2 43790  97.5051  45.1930 0014417  69.1291 291.1478 15.06339097329828
ESEO
1 43792U 18099AL  24352.53007149  .00003582  00000-0  28200-3 0  9990
2 43792  97.4818  40.7207 0009430  39.9116 320.2800 15.01383405329693
CSIM
1 43793U 18099AM  24352.15419302  .00058822  00000-0  18230-2 0  9995
2 43793  97.5106  57.0596 0008544  33.0186 327.1588 15.33188133330624
